Location: Burzi?i
(45.0869°N, 16.0577°E)
Time: 11:47:49
(UTC+00:00)

CSL-04 Rocket - Pass Details

Date: 29 October 2020
Orbit: 805 x 861 km, 98.9° (Epoch: 28 November)

Event Time Altitude Azimuth Distance (km) Brightness Sun altitude
Rises 16:52:40 0° 134° (SE) 3,426 6.5 -12.0°
Reaches altitude 10° 16:55:17 10° 124° (SE) 2,490 5.7 -12.5°
Maximum altitude 17:00:04 31° 64° (ENE) 1,455 4.4 -13.3°
Drops below altitude 10° 17:04:50 10° 4° (N) 2,482 6.0 -14.1°
Sets 17:07:25 0° 355° (N) 3,414 6.9 -14.6°
